counter statistics

Jackpot

Texas Poker Multi Jackpot System

Kini Telah hadir Jackpot SUPER ROYAL FLUSH

Kini Telah hadir Jackpot 2000 (khusus table VIP keatas).

Ikutilah global jackpot yang tersedia di system kami, dengan system jackpot terbaru dan pertama di indonesia, anda dapat membeli jackpot dengan harga 100 rupiah saja dan menangkan hadiahnya hingga puluhan juta rupiah.

Jackpot bukanlah suatu keharusan untuk dibeli, namun kami memberikan suatu fitur tambahan untuk member tercinta dari www.lahanpk.com.

Terdapat tiga pilihan harga jackpot yang bisa anda beli yaitu :100,500,1000 dan 2000(khusus table VIP Keatas) rupiah.

Hadiah dari Multi jackpot system www.lahanpk.com

  1. full house x 10 harga jackpot yang anda beli.
      (contoh:anda membeli 1000 maka:1000 X10 = 10.000)
  2. four of kind x 250 harga jackpot yang anda beli
      (contoh:anda membeli 1000 maka:1000 X250 = 250.000)
  3. Straight flush x 1200
      (contoh:anda membeli 1000 maka:1000 X1200 = 1.200.000)
  4. Royal flush x 10000 harga jackpot yang anda beli
      (contoh:anda membeli 1000 maka:1000 X10000 = 10.000.000)
  5. SUPER ROYAL FLUSH x 30000 harga jackpot yang anda beli
      (contoh:anda membeli 1000 maka:1000 X30000 = 30.000.000)

Kondisi kartu

  1. full house adalah kondisi kartu dimana kartu anda dan kartu tengah dengan total 7 kartu bisa mendapatkan nilai 5 kartu dengan kombinasi 1 tris(three of kind) dan 1 pair, contoh 3 kartu 10 dan 2 kartu 5
  2. Four of kind adalah kondisi kartu dimana kartu anda dan kartu tengah dengan total 7 kartu bisa mendapatkan nilai 5 kartu dengan kombinasi 4 kartu yang sama jumlah dan 1 kartu apapun juga contoh anda mendapatkan 4 buah kartu angka 3 dan 1 kartu apapun.
  3. Staright flush adalah kondisi kartu dimana kartu anda dan kartu tengah dengan total 7 kartu bisa mendapatkan nilai 5 kartu dengan kombinasi seri / staright dengan kembang yang sama contoh : urutan kartu dari angka 5, 6, 7, 8 , 9 10 dengan kembang yg sama misalnya as hati
  4. Royal flush adalah kondisi kartu dimana kartu anda dan kartu tengah dengan total 7 kartu bisa mendapatkan nilai 5 kartu dengan kombinasi seri / staright dengan kembang yang sama tetapi kartu tersebut haruslah dimulai dari 10. contoh 10, Queen, Jack, King dan aces dengan kembang yang sama
  5. Super Royal flush adalah kondisi kartu dimana Kedua kartu anda digabung dengan 3 kartu pertama meja haruslah royal flush. contoh kartu anda 10,Queen kembang sama dan 3 kartu pertama meja adalah Jack, King dan aces dengan kembang yang sama

Demikian adalah penjelasan dari Multi Jackpot www.lahanpk.com terima kasih dan selamat bermain salam hoki dari kami

Texas Poker Jackpot Winner

TOP SUPER ROYAL FLUSH
No.TanggalNamaPriceWin
119/08 18:08TORES4DSuper Royal flush15,000,000
219/08 15:20HERU447Super Royal flush6,000,000
319/08 11:52E049306FSuper Royal flush3,000,000
419/08 02:49RD1515Super Royal flush3,000,000
519/08 01:39BIGBRO303Super Royal flush6,000,000
TOP ROYAL FLUSH
No.TanggalNamaPriceWin
119/08 18:27BO5L_LRoyal flush1,000,000
219/08 18:08JEARA13Royal flush2,000,000
319/08 18:03DAMPETRoyal flush2,000,000
419/08 17:51EC2CCB8CRoyal flush20,000,000
519/08 17:21D32ZD6LJQXRoyal flush2,000,000
TOP STRAIGHT FLUSH
No.TanggalNamaPriceWin
119/08 18:27MOMOPOPOStraight Flush240,000
219/08 18:24CUMAQQStraight Flush120,000
319/08 18:20BINK13Straight Flush600,000
419/08 18:18DICK_LIPSStraight Flush240,000
519/08 18:17DEWITJ301Straight Flush600,000
LATEST JACKPOT
No.TanggalNamaPriceWin
119/08 18:29AC4H999Full House2,000
219/08 18:29BUOL99Full House2,000
319/08 18:29D4E2C510Full House2,000
419/08 18:29KHOECUNFull House10,000
519/08 18:29TUTONN1908Full House2,000
619/08 18:29TSQ79DIT08Full House2,000
719/08 18:29NMUCLUBFull House10,000
819/08 18:29SOLSKENFull House20,000
919/08 18:29BECHAK55Full House2,000
1019/08 18:29SIKIKOFull House10,000
1119/08 18:29LUMPUR00Full House5,000
1219/08 18:29XSEIP8HLPBFull House20,000
1319/08 18:29B827D87AFull House20,000
1419/08 18:29RESYLFull House10,000
1519/08 18:29E922F248Full House2,000
1619/08 18:29M140385Full House5,000
1719/08 18:29POLNDO20Full House2,000
1819/08 18:29BEDEBOT05Full House2,000
1919/08 18:29AUTOMONEYFull House5,000
2019/08 18:29RESSAHAJIFull House2,000
2119/08 18:29G3TUAFull House5,000
2219/08 18:29RIPCURL16Full House5,000
2319/08 18:29JINBIRONGFull House10,000
2419/08 18:29AJIGILE87Full House2,000
2519/08 18:29CBTJXCXZRQFull House5,000
2619/08 18:29DKH099Full House5,000
2719/08 18:29P1YDXFJKJIFull House20,000
2819/08 18:29FPR02Four Of A Kind50,000
2919/08 18:29JOHNTOR88Full House2,000
3019/08 18:29LINTAENG89Full House5,000
3119/08 18:28NETTV123Four Of A Kind125,000
3219/08 18:28IYA2415Full House2,000
3319/08 18:28LUCKYMAN23Full House10,000
3419/08 18:28BEE2612Full House10,000
3519/08 18:28XX00XX21Full House500
3619/08 18:28UNCANG24Full House5,000
3719/08 18:28LIA66666Full House10,000
3819/08 18:28JAWERAN_NYFull House1,000
3919/08 18:28NANZ_Four Of A Kind125,000
4019/08 18:28CITHAKSANFull House20,000
4119/08 18:28FROKENFull House2,000
4219/08 18:28RHIDO63Full House2,000
4319/08 18:28FARULIAN01Full House2,000
4419/08 18:28KOMODO04Full House1,000
4519/08 18:28DETAILERFour Of A Kind50,000
4619/08 18:28BOYA0690Full House2,000
4719/08 18:28KARTIN26Full House5,000
4819/08 18:28DEWISUC1Full House5,000
4919/08 18:28CALUKKFull House5,000
5019/08 18:28LWUJDWX61DFull House1,000

Domino Multi Jackpot System

Ikutilah global jackpot yang tersedia di system kami, dengan system jackpot terbaru dan pertama di indonesia, anda dapat membeli jackpot dengan harga 100 rupiah saja dan menangkan hadiahnya hingga puluhan juta rupiah.

Jackpot bukanlah suatu keharusan untuk dibeli, namun kami memberikan suatu fitur tambahan untuk member tercinta dari www.lahanpk.com.

Terdapat tiga pilihan harga jackpot yang bisa anda beli yaitu :100,500 dan 1000 rupiah.

Hadiah dari Multi jackpot system www.lahanpk.com

  1. Murni Kecil x 50 harga jackpot yang anda beli.
      (contoh:anda membeli 1000 maka:1000 X 50 = 50.000)
  2. Murni Besar x 50 harga jackpot yang anda beli
      (contoh:anda membeli 1000 maka:1000 X 50 = 50.000)
  3. BALAK x 100 harga jackpot yang anda beli
      (contoh:anda membeli 1000 maka:1000 X 100 = 100.000)
  4. ENAM DEWA x 6666 harga jackpot yang anda beli
      (contoh:anda membeli 1000 maka:1000 X 6666 = 6.666.000)

Demikian adalah penjelasan dari Multi Jackpot www.lahanpk.com terima kasih dan selamat bermain salam hoki dari kami

Domino Jackpot Winner

TOP ENAM DEWA
No.TanggalNamaPriceWin
119/08 17:21JEVRI12murni enam6,666,000
219/08 16:44DWINA87murni enam6,666,000
319/08 16:23ARIQTBKmurni enam6,666,000
419/08 14:31COBADREmurni enam3,333,000
519/08 14:17EGA531murni enam3,333,000
TOP BALAK
No.TanggalNamaPriceWin
119/08 18:24HOAS88balak50,000
219/08 18:23Y3HDIBR7YUbalak50,000
319/08 18:22PDL23balak10,000
419/08 18:21T988VEXbalak10,000
519/08 18:21SEPTIANCANbalak50,000
LATEST JACKPOT
No.TanggalNamaPriceWin
119/08 18:28SATGASMKmurni besar50,000
219/08 18:26NAREZ88murni besar5,000
319/08 18:26MNANG29JTmurni kecil5,000
419/08 18:26Z4BISmurni kecil50,000
519/08 18:26TEMPUR485murni besar50,000
619/08 18:25ALAYYY22murni kecil5,000
719/08 18:25GPV123murni besar50,000
819/08 18:25POKPAK_22lucky9910,000
919/08 18:25METAKImurni kecil50,000
1019/08 18:24HOAS88balak50,000
1119/08 18:24REKODEKA77murni besar5,000
1219/08 18:23Y3HDIBR7YUbalak50,000
1319/08 18:23T212BOM99murni besar5,000
1419/08 18:23SARIDIN12murni besar50,000
1519/08 18:22KUPU2Mmurni kecil25,000
1619/08 18:22PDL23balak10,000
1719/08 18:22OBOT44murni kecil25,000
1819/08 18:22LANCAH229murni kecil25,000
1919/08 18:21T988VEXbalak10,000
2019/08 18:21MULGANImurni besar5,000
2119/08 18:21M4TA001murni besar25,000
2219/08 18:21SEPTIANCANbalak50,000
2319/08 18:21PIN73Rmurni kecil50,000
2419/08 18:20IKI7murni besar50,000
2519/08 18:20BGGL8989murni besar50,000
2619/08 18:20LASDOP87balak100,000
2719/08 18:19OWEKACRUTbalak50,000
2819/08 18:19BGGL8989murni besar50,000
2919/08 18:19ZBLEND1990murni kecil50,000
3019/08 18:17MONROWAEbalak100,000
3119/08 18:16HNDJF46Y6Zmurni kecil50,000
3219/08 18:16IMROQQlucky992,500
3319/08 18:16TENTTARA99murni besar5,000
3419/08 18:15BM512TUmurni besar25,000
3519/08 18:14B33R00Wmurni kecil50,000
3619/08 18:14FARIHIN378murni besar5,000
3719/08 18:14KIKIYU99balak50,000
3819/08 18:14OCID26murni besar25,000
3919/08 18:14TUSOR34murni kecil25,000
4019/08 18:14BAYUALFIANmurni besar50,000
4119/08 18:13CBACBAA7balak50,000
4219/08 18:13BUBUD44murni besar25,000
4319/08 18:13LK4DHOKI77balak10,000
4419/08 18:12Z4BISmurni kecil50,000
4519/08 18:11TU0_8murni besar25,000
4619/08 18:09INIJALANKUbalak50,000
4719/08 18:08ARJEX44murni besar5,000
4819/08 18:08MAHENDRA85balak100,000
4919/08 18:08AHENK12murni besar50,000
5019/08 18:08THAYA84murni kecil50,000

Ceme Multi Jackpot System

Jackpot dilihat dari gabungan kartu pemain dengan kartu bandar. Bandar harus membeli jackpot sebanyak jumlah player yang sedang duduk. Sebagai contoh bila terdapat 3 pemain duduk bermain, dan bandar memutuskan untuk membeli jackpot Rp 1.000, maka pada periode tersebut bandar akan membeli jackpot sebanyak 3xRp1.000 = Rp3.000.

Jackpot bukanlah suatu keharusan untuk dibeli, namun kami memberikan suatu fitur tambahan untuk member tercinta dari www.lahanpk.com.

Terdapat tiga pilihan harga jackpot yang bisa anda beli yaitu :100,500 dan 1000 rupiah.

Hadiah dari Multi jackpot system www.lahanpk.com

  1. Murni Kecil x 50 harga jackpot yang anda beli.
      (contoh:anda membeli 1000 maka:1000 X 50 = 50.000)
  2. Murni Besar x 50 harga jackpot yang anda beli
      (contoh:anda membeli 1000 maka:1000 X 50 = 50.000)
  3. BALAK x 200 harga jackpot yang anda beli
      (contoh:anda membeli 1000 maka:1000 X 200 = 200.000)
  4. ENAM DEWA x 6666 harga jackpot yang anda beli
      (contoh:anda membeli 1000 maka:1000 X 6666 = 6.666.000)

Demikian adalah penjelasan dari Multi Jackpot www.lahanpk.com terima kasih dan selamat bermain salam hoki dari kami

Ceme Jackpot Winner

TOP ENAM DEWA
No.TanggalNamaPriceWin
119/08 18:29KENARY88murni enam666,600
219/08 18:29BERONDO88murni enam666,600
319/08 18:23KTIAN123murni enam6,666,000
419/08 18:15D9E6077Emurni enam666,600
519/08 17:39MASBAGONGmurni enam6,666,000
TOP BALAK
No.TanggalNamaPriceWin
119/08 18:29GIOVANQQbalak100,000
219/08 18:28KRUCIL24balak200,000
319/08 18:28SILVIA8DEVbalak20,000
419/08 18:28DINO1509balak20,000
519/08 18:28NAGA2207balak20,000
LATEST JACKPOT
No.TanggalNamaPriceWin
119/08 18:29KENARY88murni enam666,600
219/08 18:29BERONDO88murni enam666,600
319/08 18:29JBLCEPUmurni kecil25,000
419/08 18:29ASMBOHmurni kecil50,000
519/08 18:29ASEPROmurni kecil5,000
619/08 18:29BOWER86murni besar50,000
719/08 18:29SYAWHO6666murni kecil50,000
819/08 18:29WQZAQF4U1Smurni kecil50,000
919/08 18:29AHEL28murni kecil5,000
1019/08 18:29GIOVANQQbalak100,000
1119/08 18:29BAHATI10murni kecil25,000
1219/08 18:28MRD9murni kecil50,000
1319/08 18:28KDL1415murni kecil50,000
1419/08 18:28KRUCIL24balak200,000
1519/08 18:28SILVIA8DEVbalak20,000
1619/08 18:28KRUCIL24murni kecil50,000
1719/08 18:28KRUCIL24murni kecil50,000
1819/08 18:28DINO1509balak20,000
1919/08 18:28NAGA2207balak20,000
2019/08 18:28CJ200489murni kecil50,000
2119/08 18:28CJ200489murni kecil50,000
2219/08 18:28SYAWHO6666balak200,000
2319/08 18:28ARISKY29balak100,000
2419/08 18:28PMTEKmurni besar5,000
2519/08 18:28GOPELL99balak20,000
2619/08 18:28PUTRI981balak20,000
2719/08 18:28GILANK45murni besar25,000
2819/08 18:28S3MUTmurni besar25,000
2919/08 18:28UNFORGIVmurni kecil50,000
3019/08 18:28STEMPLETmurni kecil50,000
3119/08 18:28MUMU003murni kecil25,000
3219/08 18:28RZN521murni kecil50,000
3319/08 18:28BABEH63murni kecil5,000
3419/08 18:28XHESHAmurni kecil50,000
3519/08 18:28D9E6077Ebalak20,000
3619/08 18:28M_IKHSANbalak200,000
3719/08 18:28D9E6077Ebalak20,000
3819/08 18:28JAROT84balak200,000
3919/08 18:28SAHARANAmurni kecil50,000
4019/08 18:28ASJ02murni kecil50,000
4119/08 18:27BIDIN0909balak100,000
4219/08 18:27MDRARESTHEAbalak20,000
4319/08 18:27SINAKmurni besar50,000
4419/08 18:27PUNGUT077murni kecil25,000
4519/08 18:27JONDOL8899murni kecil50,000
4619/08 18:27JONDOL8899murni kecil50,000
4719/08 18:27ABAYYmurni kecil25,000
4819/08 18:27SYAH231119murni besar50,000
4919/08 18:27ALVARO86murni besar50,000
5019/08 18:27A13ANGmurni besar50,000